Vertical_Velocity
-2 -2 -2 -2 -3 -2 -2 1 -2 -4 -1 3 2 1 1 -1 0 0 -1 -0 0 -1 -1 -2 -0 -1 -2 -2 -1 -0 0 -0 1 2 4 -8 -1 26
-1 -1 -1 -1 1 1 -0 0 -0 -1 -7 -2 3 1 3 0 -1 -1 -1 -1 -1 1 -2 -3 -1 -2 -3 -4 -2 -1 -1 -1 -2 0 1 -4 -14 6
-2 0 1 -0 2 0 -1 0 -1 1 -2 -1 -1 1 3 0 -1 1 -1 -2 -1 -0 -1 -3 -1 -1 -1 -4 -5 -4 -4 -2 -2 -2 -3 -3 -0 21
-0 -0 2 1 -1 -0 -1 2 1 0 1 -3 -1 0 -0 1 -1 -1 -3 -2 -2 -2 -1 -1 -3 -2 -2 -3 -2 -1 -2 -7 -1 -2 -4 11 41 59
1 1 -0 1 -1 -2 -0 2 2 0 1 -1 -1 -3 -0 -1 -2 -1 -3 -4 -2 -2 -2 -3 -3 -0 -1 -1 -4 -5 -3 -6 -1 -1 -6 -1 -1 3
1 1 -0 1 1 -1 1 0 3 1 -0 -1 0 1 -2 -1 -4 -7 -5 1 -1 -4 -3 -3 -4 -1 -1 -2 -3 4 6 -2 -5 -1 2 17 2 10
-0 0 1 0 -1 1 0 2 2 1 1 -1 2 2 -0 -0 -3 -3 3 -2 -3 -2 -6 -2 -1 -3 -2 -3 -3 -3 5 -7 -2 -3 -0 2 -17 15
1 -3 8 -1 -1 1 1 1 2 2 0 -1 1 -0 0 -1 -0 2 0 -2 -2 -5 -1 2 -0 -1 -2 -1 -1 1 -5 -2 4 2 -3 -4 12 14
-1 6 -1 -1 0 0 1 3 2 0 0 -0 1 1 -1 1 -0 -0 -3 -4 -6 -4 1 0 -1 -2 -1 -2 -3 -2 1 2 2 1 3 6 6 9
-0 2 -0 1 -0 1 3 1 1 -0 -1 -0 -1 0 -0 2 -3 0 -3 -5 -2 1 0 -0 -1 -1 -1 -1 -1 -1 -1 -1 -2 -1 -1 -1 2 4
4 1 0 1 2 3 2 1 -0 0 -0 -1 0 1 -0 0 -0 -1 -2 -2 2 1 0 1 -1 -3 -3 -3 -2 -1 -1 0 1 0 -1 0 2 3
5 2 1 2 2 2 1 0 -0 -1 -1 1 1 -1 -1 0 -1 -0 -0 1 0 0 -0 -1 -1 -3 -2 -2 -1 -1 -1 -1 -1 -1 -0 -1 -1 0
3 0 -0 1 2 2 1 0 -1 -0 -0 0 0 -1 1 1 -0 -1 -0 1 1 -1 -2 -0 -0 -1 -1 -2 -1 -2 -2 -2 -2 -2 -1 -2 -2 -1
0 -1 -1 1 2 1 1 -0 -0 0 0 1 -2 -1 1 -0 -1 0 1 0 -1 -1 -0 -1 -2 -2 -1 -1 -0 -0 -2 -2 -1 -1 -0 -1 -1 -1
-0 -1 1 2 1 1 0 0 1 1 1 -0 -3 -2 -0 -0 -1 0 0 -0 -1 -1 -1 -2 -2 -1 -1 -2 0 -1 1 2 0 -0 0 0 -1 1
-0 0 1 1 -1 -0 0 0 0 -0 -1 -1 -2 -1 -0 -0 -1 -1 -1 -2 -2 -3 -3 -2 -2 -1 -1 -2 -3 -3 -4 -4 -2 -4 -2 0 1 -2
0 1 -0 -1 0 1 0 -0 -0 -0 -0 -1 -1 -1 -1 -2 -1 -2 -1 -1 -2 -1 -1 -4 -3 -2 -2 -3 -4 -4 -3 -3 -3 -3 -3 -1 4 -2
-2 -1 1 1 1 -1 0 0 -0 -1 -1 -0 -1 -1 -1 -1 -2 -2 -1 -1 -1 -1 -2 -0 -0 -2 -5 -4 -4 -3 -3 -4 -2 -2 -7 -8 1 2
1 1 1 -0 -1 0 -0 -1 -1 -0 -0 -0 -1 -1 -1 -1 -1 -1 -1 -1 -1 -1 -0 -1 -2 -1 -1 -0 -4 -7 -0 -2 -1 2 -3 -4 -7 2
1 1 -1 -0 -0 -0 -0 -0 -0 -1 -0 -1 -1 -1 -1 -0 -0 -0 -1 -2 -2 -1 -0 -1 -0 -2 -4 -4 -0 1 -10 -4 -5 -2 -3 4 -4 0
0 -1 1 -1 -1 -1 -0 -0 -0 -1 -1 -1 -1 -0 -0 0 -1 -0 0 -1 -1 0 -2 -2 -2 -6 -2 1 -1 -0 5 -7 -7 -8 -6 -6 -8 3
-1 -0 -1 -0 0 0 -0 -1 -1 -0 -0 -0 0 0 -0 -1 1 0 -0 -1 1 1 -2 -1 -4 -3 -3 -3 -2 -6 -4 5 2 -2 -3 -10 -12 -22
-0 0 1 0 -0 -0 -0 -0 -0 -1 -1 -1 -0 -0 -0 0 -2 1 -1 1 2 -1 -0 -1 -4 -3 -3 -4 -6 -4 -2 -2 -3 4 15 -3 -1 -4
Height
3067 3065 3063 3061 3058 3056 3053 3051 3048 3048 3050 3050 3050 3050 3049 3048 3048 3047 3047 3047 3046 3045 3045 3045 3044 3044 3044 3044 3044 3044 3045 3046 3046 3047 3047 3050 3050 3050
3058 3056 3054 3052 3049 3047 3045 3043 3041 3040 3040 3044 3043 3042 3041 3040 3040 3040 3039 3038 3038 3037 3036 3036 3036 3036 3036 3035 3035 3034 3034 3035 3035 3037 3037 3036 3039 3041
3049 3047 3045 3042 3041 3039 3038 3037 3035 3033 3032 3036 3035 3035 3035 3033 3032 3032 3032 3030 3030 3029 3029 3029 3028 3028 3028 3027 3026 3026 3026 3026 3026 3027 3027 3028 3032 3032
3039 3037 3036 3035 3033 3032 3031 3030 3029 3028 3027 3028 3029 3028 3027 3027 3026 3025 3024 3023 3023 3022 3022 3021 3020 3019 3019 3018 3018 3017 3016 3017 3018 3019 3021 3023 3022 3021
3031 3030 3029 3027 3026 3026 3024 3024 3023 3023 3023 3022 3022 3022 3022 3021 3020 3019 3018 3016 3015 3015 3014 3014 3012 3011 3010 3009 3008 3008 3008 3009 3010 3012 3012 3015 3015 3014
3025 3024 3023 3022 3021 3021 3020 3020 3019 3019 3019 3018 3017 3017 3016 3015 3014 3014 3012 3011 3010 3009 3008 3008 3005 3004 3003 3002 3001 3001 3001 3001 3003 3006 3008 3004 3010 3009
3022 3021 3021 3020 3018 3018 3018 3017 3016 3015 3015 3013 3013 3012 3010 3009 3009 3009 3007 3006 3005 3004 3003 3002 3000 2997 2995 2995 2993 2995 2994 2994 2996 2999 3000 2999 3001 3001
3019 3019 3019 3017 3017 3016 3015 3014 3013 3012 3011 3010 3009 3007 3006 3006 3005 3004 3003 3002 3002 3001 2999 2997 2995 2992 2990 2989 2989 2989 2990 2989 2990 2991 2991 2992 2993 2994
3018 3017 3016 3015 3014 3014 3013 3011 3009 3008 3008 3007 3006 3004 3003 3002 3001 3000 3000 2999 2998 2996 2994 2992 2990 2989 2987 2985 2984 2983 2983 2984 2984 2984 2985 2985 2985 2985
3016 3015 3014 3013 3012 3011 3010 3008 3007 3006 3005 3004 3003 3002 3001 2999 2998 2998 2997 2996 2994 2992 2990 2988 2986 2984 2983 2982 2980 2979 2978 2977 2977 2976 2976 2976 2975 2974
3013 3013 3011 3010 3010 3009 3008 3007 3005 3004 3004 3003 3002 3000 2999 2998 2997 2995 2994 2993 2991 2989 2987 2985 2983 2981 2979 2977 2976 2974 2972 2971 2970 2969 2968 2967 2965 2964
3010 3010 3008 3008 3008 3008 3007 3006 3004 3003 3002 3002 3000 2999 2997 2995 2994 2993 2991 2990 2988 2986 2983 2982 2979 2978 2976 2974 2971 2968 2966 2964 2963 2961 2960 2959 2958 2956
3007 3007 3006 3007 3007 3007 3006 3005 3003 3002 3001 3000 2998 2996 2995 2993 2991 2990 2988 2985 2983 2981 2978 2976 2974 2972 2970 2967 2965 2963 2960 2958 2956 2954 2953 2951 2950 2948
3004 3004 3005 3006 3006 3005 3004 3003 3002 3001 2999 2998 2996 2994 2992 2990 2988 2986 2983 2981 2978 2975 2973 2970 2967 2965 2963 2960 2958 2956 2953 2950 2948 2946 2944 2942 2940 2938
3002 3003 3004 3005 3004 3003 3002 3001 3000 2999 2997 2996 2994 2992 2989 2987 2984 2981 2979 2976 2972 2969 2967 2964 2961 2958 2956 2953 2951 2948 2946 2943 2939 2936 2934 2932 2929 2927
2999 3001 3002 3003 3002 3001 3000 2999 2998 2996 2994 2993 2990 2988 2985 2982 2979 2975 2972 2969 2966 2963 2960 2957 2954 2952 2949 2946 2943 2940 2936 2934 2932 2927 2924 2922 2919 2914
2999 2999 3000 3000 3000 2999 2997 2996 2995 2993 2991 2988 2985 2983 2980 2976 2973 2969 2966 2963 2960 2957 2954 2951 2948 2945 2943 2940 2936 2933 2930 2926 2922 2919 2915 2913 2911 2905
2996 2997 2998 2997 2996 2995 2994 2993 2991 2988 2986 2983 2980 2977 2974 2971 2967 2963 2960 2957 2954 2952 2949 2947 2944 2941 2936 2933 2931 2927 2923 2920 2917 2913 2907 2903 2903 2899
2994 2995 2995 2993 2993 2992 2990 2988 2986 2983 2980 2977 2974 2971 2968 2965 2962 2958 2955 2952 2950 2947 2945 2942 2940 2938 2935 2931 2926 2921 2919 2915 2912 2909 2903 2898 2895 2893
2992 2991 2991 2990 2989 2988 2986 2983 2980 2977 2974 2971 2968 2965 2962 2959 2956 2954 2951 2948 2946 2942 2940 2938 2936 2933 2931 2928 2924 2919 2912 2909 2905 2902 2898 2894 2890 2887
2988 2988 2987 2986 2985 2983 2980 2977 2974 2971 2968 2965 2962 2960 2957 2954 2951 2949 2946 2944 2941 2938 2936 2934 2933 2931 2927 2922 2918 2916 2912 2905 2900 2896 2891 2886 2884 2881
2985 2984 2983 2981 2979 2977 2974 2971 2967 2964 2961 2959 2957 2955 2952 2949 2947 2944 2942 2940 2937 2935 2933 2931 2929 2926 2921 2917 2914 2910 2907 2905 2899 2894 2889 2882 2876 2872
2981 2980 2978 2976 2974 2971 2968 2965 2962 2959 2956 2954 2952 2950 2948 2945 2944 2941 2939 2937 2934 2931 2929 2928 2925 2921 2916 2913 2909 2906 2902 2898 2895 2892 2889 2882 2877 2871